STARLINK-3847, 52333

Orbit data source: Space-Track

STARLINK-3847, 52333 is a payload satellite owned by SpaceX/Seattle (US) in LEO that was launched on Fri, 29 Apr 2022 UTC via an FALCON 9 launch vehicle from the Air Force Eastern Test Range (AFETR). Payload-class satellites include a variety of spacecraft equipped with specific instruments for various scientific and technological missions. These include communications satellites like Starlink; space stations such as the ISS; scientific satellites like the Hubble; Earth observation satellites from companies like Planet Labs, Umbra, and HawkEye 360; GPS; miniature CubeSats for education and research; and military/defense satellites.

Loading next visibility...
Identifier
52333, 2022-045C
Orbit
LEO
Country
Flag of USUS
Related business
Manufacturer
SpaceX/Seattle
Mission
Operational Commercial Communications
Bus & Motor
STARLINK, Unknown motor
Mass
297 kg wet, ~275 kg dry
Launch date (UTC)
2022-04-29 (4 years ago)
Launch vehicle
FALCON 9
Launch site
Air Force Eastern Test Range (AFETR)
Object type
Payload
Rocket body
Debris
Shape & HBR
Box + 1 Pan, 10.1 m
Radar Cross Section
11.087 m², Large (>1 m²)

Expand to show TLE details & history
Last TLE update: 9 hours ago

TLE from 9 hours ago
0 STARLINK-3847
1 52333U 22045C   25349.92743772  .00000255  00000-0  34093-4 0  9998
2 52333  53.2165 225.1467 0001429  88.1863 271.9293 15.08841491202982
Epoch: 2025-12-15T22:15Z
TLE epoch observation values (Epoch: 2025-12-15T22:15:30.619Z)
Latitude
-0.00003°
Longitude
166.45012°
Altitude
540.603 km
Speed
7.593 km/s
True Right ascension
15h 00m 35s
True Declination
0° 00' 00"
Sunlit
Object was in daylight at epoch
Visualization orbit readout
Latitude
Unknown
Longitude
Unknown
Altitude
Unknown
Speed
Unknown
Apparent Right ascension
Unknown
Apparent Declination
Unknown
Sunlit
N/A
Visualization observer readout
Local Sidereal Time
06:14:51
Azimuth
Unknown
Elevation
Unknown
Doppler factor
Unknown
Orbital elements
Apogee altitude
540.973 km
Perigee altitude
538.995 km
Semi-major axis
6,918.121 km
Eccentricity
0.00014
Inclination
53.2165°
RAAN
225.1467°
Arg. of periapsis
88.1863°
True anomaly
271.91293°
Mean anomaly
271.9293°
Eccentric anomaly
271.92112°
Mean motion
3.77191 °/min
Orbital period
95.44 mins
BSTAR
0.000034093
Loading maneuver chart data...
Computing Atmospheric mass density...
Loading historical data...
Loading historical data...
Loading historical data...
Loading historical data...
Loading historical data...
Loading historical data...
Loading historical data...

Documentation

Showing up to 5 results
|